Regional Weather Roundup
Issued by NWS

Home | Current Version | Previous Version | Text Only | Print | Product List | Glossary Off
Versions: 1 2 3 4 5 6 7 8 9 10 11 12 13 14 15 16 17 18 19 20 21 22 23 24 25 26 27 28 29 30 31 32 33 34 35 36 37 38 39 40 41 42 43 44 45 46 47 48 49 50

000
ASUS43 KDTX 230401
RWRMI
MICHIGAN HOURLY REGIONAL WEATHER ROUNDUP
NATIONAL WEATHER SERVICE DETROIT/PONTIAC MI
1200 AM EDT WED JUL 23 2014

NOTE: "FAIR" INDICATES FEW OR NO CLOUDS BELOW 12,000 FEET WITH NO
SIGNIFICANT WEATHER AND/OR OBSTRUCTION TO VISIBILITY.

MIZ047>049-052>055-059>063-066>070-074>076-081>083-230500-
SOUTHEAST LOWER MICHIGAN

CITY           SKY/WX    TMP DP  RH WIND       PRES   REMARKS
ADRIAN         MOCLDY    77  67  71 W6        29.98R
ALMA           MOCLDY    77  69  76 W6        29.94R
ANN ARBOR      CLOUDY    78  65  63 SW7       29.96R
BAD AXE        PTCLDY    77  68  73 W6        29.92S
CARO           PTCLDY    80  69  71 SW5       29.90F
DETROIT CITY   MOCLDY    84  65  52 SW10      29.94R
DETROIT        MOCLDY    80  67  64 S10       29.96R
FLINT          MOCLDY    81  67  62 SW6       29.93F
GROSSE ILE     PTCLDY    81  66  61 SW5       29.94R
HILLSDALE      CLOUDY    79  68  68 W5        29.99S
HOWELL         CLOUDY    78  67  68 SW6       29.96R

CITY           SKY/WX    TMP DP  RH WIND       PRES   REMARKS
JACKSON        CLOUDY    79  68  69 W7        29.97R
LAMBERTVILLE   PTCLDY    81  64  57 SW5       29.97S
LANSING        PTCLDY    80  68  66 SW14      29.92F
LAPEER         CLOUDY    81  66  61 SW6       29.94S
MASON          CLOUDY    79  68  68 SW6       29.96S
MONROE         PTCLDY    79  66  65 SW5       29.94S
MT. CLEMENS    MOCLDY    83  67  58 SW9       29.93R
PONTIAC        CLOUDY    80  66  62 SW8       29.95R
PORT HOPE        N/A     79  68  69 VRB5      29.87S
PORT HURON     CLOUDY    77  68  73 CALM      29.94R
TRI CITIES     MOCLDY    80  70  71 W8        29.92R
TROY           CLOUDY    82  65  57 SW6       29.96R
SAGINAW HB     CLEAR     79  68  69 SW8       29.90F
$$
MIZ043>046-050>051-056>058-064>065-071>073-077>080-230500-
SOUTHWEST LOWER MICHIGAN

CITY           SKY/WX    TMP DP  RH WIND       PRES   REMARKS
BATTLE CREEK   CLOUDY    80  69  69 W9        29.98R
BENTON HARBOR  CLOUDY    80  72  76 SW9       29.95S
BIG RAPIDS     CLOUDY    74  67  78 N20G30    29.96R
COLDWATER      CLOUDY    79  70  72 SW8       29.99R
FREMONT        FAIR      67  67 100 NW3       29.96S
HOLLAND        TSTM      70  65  84 SW13      29.96F
GRAND RAPIDS   TSTM      71  67  87 W16G26    29.97S
IONIA          FAIR      76  71  84 NW9       29.93S
KALAMAZOO      PTCLDY    79  69  71 W7        29.98R
LUDINGTON      CLOUDY    64  60  86 N15G21    30.01R
MARSHALL       CLOUDY    78  69  73 W5        29.97S
MOUNT PLEASANT LGT RAIN  75  70  83 NW5       29.94R
MUSKEGON       MOCLDY    73  70  90 W5        29.97R
SOUTH HAVEN    HVY RAIN  81  75  82 SW9       29.96R
$$
MIZ016>042-230500-
NORTHERN LOWER MICHIGAN

CITY           SKY/WX    TMP DP  RH WIND       PRES   REMARKS
ALPENA         CLOUDY    67  60  78 W6G16     29.93R
BEAVER ISLAND  PTCLDY    60  57  90 N14G24    30.01R
BELLAIRE       CLOUDY    64  56  77 N8        30.01R
CADILLAC       CLOUDY    60  58  91 N10       30.02R
CHARLEVOIX     CLOUDY    62  58  85 N13G22    30.04R
FRANKFORT      MOCLDY    65  56  74 N9G18     30.04S
GAYLORD        CLOUDY    60  56  86 NW8G25    30.00R
GRAYLING       CLOUDY    63  62  96 NW6       30.01R
HARBOR SPRINGS CLOUDY    62  56  81 NW9G21    29.99R
HOUGHTON LAKE  CLOUDY    65  62  90 NW10      29.99R
MANISTEE       MOCLDY    64  55  72 N16G25    30.04R
OSCODA         MOCLDY    75  66  72 NW7       29.90F
PELLSTON       CLOUDY    62  56  80 NW16G25   29.98R
TRAVERSE CITY  CLOUDY    64  55  72 N13G25    30.02S
$$
MIZ007>008-015-230500-
EASTERN UPPER MICHIGAN

CITY           SKY/WX    TMP DP  RH WIND       PRES   REMARKS
KINROSS        CLOUDY    54  54 100 NW13      29.97R
MACKINAC ISLAN CLOUDY    57  56  94 NW14G22   29.97R
NEWBERRY       CLOUDY    56  53  88 NW15G22   30.01R
S. S. MARIE    CLOUDY    52  49  89 NW7       29.96S
MUNISING         N/A     55  51  86 NW10      30.06R
$$
MIZ004>006-011>014-085-230500-
CENTRAL UPPER MICHIGAN

CITY           SKY/WX    TMP DP  RH WIND       PRES   REMARKS
MANISTIQUE     CLOUDY    60  54  78 N18G29    30.03R
ESCANABA       CLEAR     63  54  72 N8G18     30.05R
MENOMINEE      CLEAR     64  54  68 N10       30.06R
SAWYER-GWINN   CLEAR     59  53  82 N9        30.08S
$$
MIZ001>003-009>011-084-230500-
WESTERN UPPER MICHIGAN

CITY           SKY/WX    TMP DP  RH WIND       PRES   REMARKS
IRON MOUNTAIN  CLEAR     59  55  87 NW6       30.08S
HOUGHTON       CLEAR     54  51  90 NW5       30.11R
COPPER HARBOR    N/A     57  53  86 N12       30.09R
$$

ABBREVIATIONS USED IN REMARKS
   TC - TEMPERATURE IN CELSIUS
  WCI - WIND CHILL INDEX
   HX - HEAT INDEX
  VSB - VISIBILITY



USA.gov is the U.S. government's official web portal to all federal, state and local government web resources and services.